Regional Weather Roundup
Issued by NWS Newport/Morehead, NC

Current Version | Previous Version | Graphics & Text | Print | Product List | Glossary On
Versions: 1 2 3 4 5 6 7 8 9 10 11 12 13 14 15 16 17 18 19 20 21 22 23 24 25 26 27 28 29 30 31 32 33 34 35 36 37 38 39 40 41 42 43 44 45 46 47 48 49 50
000 ASUS42 KMHX 201113 RWRMHX WEATHER ROUNDUP FOR EASTERN NORTH CAROLINA NATIONAL WEATHER SERVICE NEWPORT/MOREHEAD CITY NC 700 AM EDT FRI APR 20 2018 NOTE: "FAIR" INDICATES FEW OR NO CLOUDS BELOW 12,000 FEET WITH NO SIGNIFICANT WEATHER AND/OR OBSTRUCTIONS TO VISIBILITY NCZ015>017-031-032-045>047-102-103-201200- NORTH COAST CITY SKY/WX TMP DP RH WIND PRES REMARKS EDENTON FAIR 37 33 84 CALM 30.29R ELIZABETH CITY FAIR 36 32 85 W5 30.27R KITTY HAWK FAIR 45 29 53 CALM 30.25R MANTEO FAIR 46 28 48 N12G20 30.27R $$ NCZ045>047-081-094-103-104-201200- CENTRAL COAST CITY SKY/WX TMP DP RH WIND PRES REMARKS FRISCO FAIR 50 29 44 N14G26 30.25R $$ NCZ095-097-098-100-101-201200- SOUTHERN COAST CITY SKY/WX TMP DP RH WIND PRES REMARKS BEAUFORT FAIR 44 28 53 NE5 30.28R CEDAR ISLAND NOT AVBL JACKSONVILLE FAIR 42 34 73 N6 30.29R PINEY ISLAND NOT AVBL WILMINGTON FAIR 43 31 62 N6 30.29R $$ NCZ011>013-027>030-043-044-078>080-089-090>093-098-201200- COASTAL PLAIN CITY SKY/WX TMP DP RH WIND PRES REMARKS AHOSKIE FAIR 37 31 81 CALM 30.29R CLINTON FAIR 40 34 78 CALM 30.31R ELIZABETHTOWN FAIR 38 32 78 MISG 30.31R GOLDSBORO FAIR 38 31 75 CALM 30.29R GREENVILLE FAIR 36 34 93 CALM 30.30R HAVELOCK CLEAR 46 33 60 N6 30.29R KENANSVILLE FAIR 34 32 93 CALM 30.30R KINSTON FAIR 36 34 93 CALM 30.30R NEW BERN FAIR 39 32 76 CALM 30.30R RICHLANDS FAIR 36 33 89 CALM 30.30R ROCKY MOUNT FAIR 36 32 85 CALM 30.30R WASHINGTON FAIR 37 32 81 CALM 30.29R WHITEVILLE FAIR 43 32 65 CALM 30.30R $$ AMZ130-135-150-152-154-156-158-170-250-252-270-ANZ085-086-088-633-658-670-201200- MARINE OBSERVATIONS STATION/POSITION TIME TEMP WIND PRES WAVE SWELL AIR SEA DIR/SP/G HT/PER HT/PER (UTC) (F) (DEG/KT/KT) (MB) (FT/S) (FT/S) CHESAPEAKE LIGHT NOT AVBL 64 E VA BEACH 1050 47 49 320/ 21/ 25 1023.2 7/ 6 2/ 9 DUCK 1048 46 51 310/ 10/ 15 1024.0 2 E DUCK 1100 49 N/A 5/ 7 OREGON INLET 1036 46 58 330/ 9/ 12 1024.1 13E OREGON INLT 1048 52 N/A 7/ 7 7/ 7 HATTERAS CG 1036 50 62 350/ 17/ 23 1024.0 DIAMOND BUOY 1100 52 71 10/ 23/ 29 1024.3 CAPE LOOKOUT 1100 20/ 14/ 18 1025.3 BEAUFORT LAB 1036 47 63 10/ 9/ 12 1025.0 30 SE NEW RVR IN 1008 53 65 60/ 19/ 25 1023.8 30 SE NEW RVR IN 1100 65 N/A 7/ 5 2/11 27 SE WRIGHTSVLE 1008 53 65 50/ 25/ 33 1023.9 5 SE WRIGHTSVLE 1008 51 60 30/ 19/ 25 1023.5 225 S CAPE HAT 1050 68 71 30/ 21/ 27 1018.9 7/ 6 2/15 41 SE CHARLESTON 1100 57 67 40/ 23/ 31 1023.0 $$

USA.gov is the U.S. government's official web portal to all federal, state and local government web resources and services.